When you browse on this site, cookies collect data to enhance your experience and personalize the content and advertising you see.
Visit our Privacy Policy to learn more. By continuing to use the site, you agree to this use of cookies and data.
  • In United Kingdom
  • List of Countries
  • For 7 days
  • Water Temperature
  • Weather Map
  • Weather Widgets
  • user-avatar
    Login

    Hourly Weather Porto Velho

    Today, 21 February, Friday

    Time Temperature Precipitation Wind Pressure Humidity
    00:00 +26°C° 0.6 mm 1 mps 750 mmHg 98%
    01:00 +26°C° 0.6 mm 1 mps 750 mmHg 98%
    02:00 +25°C° 0.6 mm 1 mps 750 mmHg 99%
    09:00 +26°C° 0.3 mm 1 mps 751 mmHg 97%
    10:00 +27°C° 0.3 mm 1 mps 752 mmHg 96%
    11:00 +27°C° 0.3 mm 1 mps 752 mmHg 96%
    12:00 +27°C° 1.9 mm 1 mps 751 mmHg 95%
    13:00 +28°C° 1.9 mm 1 mps 750 mmHg 94%
    14:00 +28°C° 1.9 mm 1 mps 749 mmHg 93%
    15:00 +26°C° 0.9 mm 0 mps 749 mmHg 94%
    16:00 +25°C° 0.9 mm 0 mps 749 mmHg 96%
    17:00 +25°C° 0.9 mm 0 mps 749 mmHg 97%
    18:00 +25°C° 0.5 mm 0 mps 749 mmHg 97%
    19:00 +24°C° 0.5 mm 0 mps 750 mmHg 98%
    20:00 +24°C° 0.5 mm 0 mps 750 mmHg 98%
    21:00 +23°C° 0.2 mm 0 mps 751 mmHg 98%
    22:00 +23°C° 0.2 mm 0 mps 751 mmHg 99%
    23:00 +23°C° 0.2 mm 0 mps 752 mmHg 99%

    Tomorrow, 22 February, Saturday

    Time Temperature Precipitation Wind Pressure Humidity
    00:00 +23°C° 0.2 mm 0 mps 751 mmHg 99%
    01:00 +23°C° 0.2 mm 0 mps 751 mmHg 99%
    02:00 +23°C° 0.2 mm 0 mps 750 mmHg 99%
    03:00 +23°C° 0.2 mm 0 mps 750 mmHg 99%
    04:00 +23°C° 0.2 mm 0 mps 750 mmHg 99%
    05:00 +23°C° 0.2 mm 0 mps 750 mmHg 99%
    06:00 +23°C° 0.3 mm 0 mps 751 mmHg 98%
    07:00 +23°C° 0.3 mm 0 mps 751 mmHg 98%
    08:00 +23°C° 0.3 mm 0 mps 752 mmHg 98%
    09:00 +23°C° 1.6 mm 0 mps 752 mmHg 98%
    10:00 +23°C° 1.6 mm 0 mps 752 mmHg 98%
    11:00 +24°C° 1.6 mm 0 mps 752 mmHg 98%
    12:00 +23°C° 4.3 mm 0 mps 752 mmHg 98%
    13:00 +23°C° 4.3 mm 0 mps 751 mmHg 98%
    14:00 +23°C° 4.3 mm 0 mps 751 mmHg 98%
    15:00 +23°C° 1.3 mm 0 mps 751 mmHg 98%
    16:00 +24°C° 1.3 mm 1 mps 750 mmHg 98%
    17:00 +24°C° 1.3 mm 1 mps 750 mmHg 98%
    18:00 +22°C° 0.3 mm 0 mps 750 mmHg 99%
    19:00 +22°C° 0.3 mm 0 mps 751 mmHg 99%
    20:00 +22°C° 0.3 mm 0 mps 751 mmHg 99%
    21:00 +24°C° 0 mm 1 mps 751 mmHg 99%
    22:00 +24°C° 0 mm 1 mps 752 mmHg 98%
    23:00 +24°C° 0 mm 1 mps 752 mmHg 98%

    Day after tomorrow, 23 February, Sunday

    Time Temperature Precipitation Wind Pressure Humidity
    00:00 +23°C° 0 mm 1 mps 752 mmHg 98%
    01:00 +23°C° 0 mm 1 mps 751 mmHg 98%
    02:00 +21°C° 0 mm 0 mps 751 mmHg 98%
    03:00 +21°C° 0 mm 0 mps 751 mmHg 98%
    04:00 +22°C° 0 mm 1 mps 751 mmHg 97%
    05:00 +22°C° 0 mm 1 mps 751 mmHg 97%
    06:00 +22°C° 0 mm 1 mps 751 mmHg 95%
    07:00 +20°C° 0 mm 0 mps 752 mmHg 94%
    08:00 +20°C° 0 mm 0 mps 752 mmHg 92%
    09:00 +21°C° 0 mm 0 mps 752 mmHg 89%
    10:00 +22°C° 0 mm 0 mps 753 mmHg 85%
    11:00 +23°C° 0 mm 0 mps 753 mmHg 82%
    12:00 +25°C° 0 mm 0 mps 752 mmHg 74%
    13:00 +27°C° 0 mm 0 mps 751 mmHg 67%
    14:00 +31°C° 0 mm 1 mps 750 mmHg 60%
    15:00 +31°C° 0 mm 1 mps 750 mmHg 62%
    16:00 +30°C° 0 mm 1 mps 749 mmHg 65%
    17:00 +30°C° 0 mm 1 mps 749 mmHg 67%
    18:00 +28°C° 0 mm 1 mps 749 mmHg 75%
    19:00 +27°C° 0 mm 1 mps 750 mmHg 82%
    20:00 +23°C° 0 mm 0 mps 750 mmHg 90%
    21:00 +23°C° 0 mm 0 mps 750 mmHg 90%
    22:00 +23°C° 0 mm 0 mps 751 mmHg 91%
    23:00 +22°C° 0 mm 0 mps 751 mmHg 91%

    24 February, Monday

    Time Temperature Precipitation Wind Pressure Humidity
    00:00 +22°C° 0 mm 0 mps 751 mmHg 92%
    01:00 +22°C° 0 mm 0 mps 751 mmHg 92%
    02:00 +22°C° 0 mm 0 mps 750 mmHg 93%
    03:00 +22°C° 0 mm 0 mps 750 mmHg 92%
    04:00 +22°C° 0 mm 0 mps 750 mmHg 91%
    05:00 +22°C° 0 mm 0 mps 750 mmHg 90%
    06:00 +23°C° 0 mm 0 mps 750 mmHg 87%
    07:00 +24°C° 0 mm 0 mps 751 mmHg 84%
    08:00 +25°C° 0 mm 0 mps 751 mmHg 81%
    09:00 +27°C° 0 mm 0 mps 752 mmHg 72%
    10:00 +29°C° 0 mm 0 mps 752 mmHg 64%
    11:00 +34°C° 0 mm 1 mps 752 mmHg 55%
    12:00 +34°C° 0.1 mm 1 mps 751 mmHg 54%
    13:00 +33°C° 0.1 mm 0 mps 750 mmHg 52%
    14:00 +34°C° 0.1 mm 0 mps 749 mmHg 50%
    15:00 +33°C° 0.2 mm 0 mps 748 mmHg 54%
    16:00 +32°C° 0.2 mm 0 mps 747 mmHg 58%
    17:00 +33°C° 0.2 mm 1 mps 746 mmHg 62%
    18:00 +31°C° 1.2 mm 1 mps 747 mmHg 73%
    19:00 +29°C° 1.2 mm 1 mps 748 mmHg 84%
    20:00 +27°C° 1.2 mm 1 mps 748 mmHg 95%
    21:00 +26°C° 1.3 mm 1 mps 749 mmHg 96%
    22:00 +26°C° 1.3 mm 1 mps 749 mmHg 97%
    23:00 +26°C° 1.3 mm 1 mps 750 mmHg 98%

    25 February, Tuesday

    Time Temperature Precipitation Wind Pressure Humidity
    00:00 +26°C° 0.3 mm 1 mps 750 mmHg 98%
    01:00 +24°C° 0.3 mm 0 mps 749 mmHg 98%
    02:00 +23°C° 0.3 mm 0 mps 749 mmHg 97%
    03:00 +23°C° 0.4 mm 0 mps 749 mmHg 98%
    04:00 +23°C° 0.4 mm 0 mps 749 mmHg 98%
    05:00 +23°C° 0.4 mm 0 mps 749 mmHg 98%
    06:00 +25°C° 0.3 mm 1 mps 750 mmHg 98%
    07:00 +25°C° 0.3 mm 1 mps 750 mmHg 97%
    08:00 +26°C° 0.3 mm 1 mps 751 mmHg 97%
    09:00 +26°C° 0.2 mm 1 mps 751 mmHg 95%
    10:00 +26°C° 0.2 mm 1 mps 751 mmHg 93%
    11:00 +27°C° 0.2 mm 1 mps 751 mmHg 91%
    12:00 +28°C° 0.3 mm 1 mps 751 mmHg 84%
    13:00 +30°C° 0.3 mm 1 mps 750 mmHg 77%
    14:00 +32°C° 0.3 mm 1 mps 749 mmHg 70%
    15:00 +31°C° 1.1 mm 1 mps 749 mmHg 75%
    16:00 +31°C° 1.1 mm 1 mps 748 mmHg 80%
    17:00 +30°C° 1.1 mm 1 mps 748 mmHg 85%
    18:00 +29°C° 0 mm 1 mps 748 mmHg 89%
    19:00 +26°C° 0 mm 0 mps 748 mmHg 92%
    20:00 +25°C° 0 mm 0 mps 749 mmHg 95%
    21:00 +24°C° 0 mm 0 mps 749 mmHg 96%
    22:00 +24°C° 0 mm 0 mps 750 mmHg 96%
    23:00 +24°C° 0 mm 0 mps 750 mmHg 96%

    26 February, Wednesday

    Time Temperature Precipitation Wind Pressure Humidity
    00:00 +24°C° 0 mm 0 mps 750 mmHg 97%
    01:00 +24°C° 0 mm 0 mps 750 mmHg 97%
    02:00 +24°C° 0 mm 0 mps 749 mmHg 98%
    03:00 +24°C° 0.6 mm 0 mps 749 mmHg 98%
    04:00 +24°C° 0.6 mm 0 mps 749 mmHg 98%
    05:00 +24°C° 0.6 mm 0 mps 749 mmHg 98%
    06:00 +24°C° 0.3 mm 0 mps 750 mmHg 97%
    07:00 +24°C° 0.3 mm 0 mps 750 mmHg 95%
    08:00 +25°C° 0.3 mm 0 mps 751 mmHg 94%
    09:00 +26°C° 0 mm 0 mps 751 mmHg 87%
    10:00 +28°C° 0 mm 0 mps 751 mmHg 79%
    11:00 +31°C° 0 mm 1 mps 751 mmHg 72%
    12:00 +29°C° 0.3 mm 0 mps 750 mmHg 72%
    13:00 +29°C° 0.3 mm 0 mps 749 mmHg 73%
    14:00 +30°C° 0.3 mm 0 mps 749 mmHg 74%
    15:00 +30°C° 0.3 mm 0 mps 748 mmHg 73%
    16:00 +30°C° 0.3 mm 0 mps 747 mmHg 72%
    17:00 +30°C° 0.3 mm 0 mps 746 mmHg 72%
    18:00 +28°C° 0.2 mm 0 mps 747 mmHg 77%
    19:00 +27°C° 0.2 mm 0 mps 748 mmHg 83%
    20:00 +25°C° 0.2 mm 0 mps 748 mmHg 89%
    21:00 +25°C° 0.1 mm 0 mps 749 mmHg 90%
    22:00 +25°C° 0.1 mm 0 mps 749 mmHg 91%
    23:00 +24°C° 0.1 mm 0 mps 750 mmHg 92%
    Show more